DMSP 5D-2 F13 DEB, 40525

Orbit data source: Space-Track

DMSP 5D-2 F13 DEB, 40525 is space debris in SSO originally from a launch on Fri, 24 Mar 1995 UTC launched from the Air Force Western Test Range (AFWTR). Debris objects in space refer to the collection of defunct objects orbiting the Earth. Examples of debris include non-operational satellites, rocket bodies, and fragments generated from explosions, collisions, or faulty payload assembly.

Loading next visibility...
Identifier
40525, 1995-015DM
Orbit
SSO
Country
Flag of USUS
Related business
Manufacturer
Unknown
Mission
Spacecraft
Bus & Motor
Unknown
Mass
Unknown
Launch date (UTC)
1995-03-24 (31 years ago)
Launch vehicle
Unknown
Launch site
Air Force Western Test Range (AFWTR)
Object type
Payload
Rocket body
Debris
Shape & HBR
Unknown shape, 0.1 m
Radar Cross Section
Small (<0.1 m²)

Expand to show TLE details & history
Last TLE update: 2 days ago

TLE from 2 days ago
0 DMSP 5D-2 F13 DEB
1 40525U 95015DM  26035.33447832  .00005681  00000-0  18740-2 0  9998
2 40525  98.6812  76.4726 0010899 280.0018  79.9939 14.38437333563043
Epoch: 2026-02-04T08:01Z
TLE epoch observation values (Epoch: 2026-02-04T08:01:38.926Z)
Latitude
-0.00001°
Longitude
-178.44214°
Altitude
765.262 km
Speed
7.472 km/s
True Right ascension
05h 05m 53s
True Declination
0° 00' 00"
Sunlit
Object was in full shadow at epoch
Visualization orbit readout
Latitude
Unknown
Longitude
Unknown
Altitude
Unknown
Speed
Unknown
Apparent Right ascension
Unknown
Apparent Declination
Unknown
Sunlit
N/A
Visualization observer readout
Local Sidereal Time
20:38:48
Azimuth
Unknown
Elevation
Unknown
Doppler factor
Unknown
Orbital elements
Apogee altitude
768.58 km
Perigee altitude
753.018 km
Semi-major axis
7,138.936 km
Eccentricity
0.00109
Inclination
98.6812°
RAAN
76.4726°
Arg. of periapsis
280.0018°
True anomaly
80.11692°
Mean anomaly
79.9939°
Eccentric anomaly
80.05541°
Mean motion
3.59826 °/min
Orbital period
100.05 mins
BSTAR
0.001874
Loading maneuver chart data...
Computing Atmospheric mass density...

Documentation

Showing up to 5 results
|